Date String (YYYY-MM-DD hh:mm:ss) UTC,Instrument flags,Ambient pressure (hPa),Sample flow (lpm),Bypass flow (lpm),Sample temperature (°C),Ambient temperature (°C),ASC tube jacket temperature (°C),LED temperature (°C),Box temperature (°C),Sample RH (%),Span deviation,Mass concentration (μg/m³),Mass concentration (μg/m³),Mass concentration (μg/m³)
DateTimeUTC,F1_M11,P_M11,Q1_M11,Q2_M11,T1_M11,T2_M11,T3_M11,T4_M11,T5_M11,U1_M11,ZSPAN_M11,X0_M11,X2_M11,X1_M11
2023-01-23 10:00:00,,0825.4,5.00,0.00,22.8,22.5,00.0,31.5,24.8,11.5,-000.2,0026.30,0018.31,0017.85
2023-01-23 10:01:00,,0825.4,4.99,0.00,22.8,22.2,00.0,31.5,24.7,11.5,-000.2,0025.69,0018.08,0017.62
2023-01-23 10:02:00,,0825.4,5.02,0.00,22.8,21.9,00.0,31.5,24.7,11.5,-000.4,0025.31,0017.81,0017.38
2023-01-23 10:03:00,,0825.4,5.00,0.00,22.8,21.7,00.0,31.5,24.6,11.5,-000.5,0024.87,0017.48,0017.08
2023-01-23 10:04:00,,0825.4,4.99,0.00,22.8,21.6,00.0,31.5,24.6,11.5,-000.4,0024.59,0017.19,0016.78
2023-01-23 10:05:00,,0825.4,5.00,0.00,22.8,21.5,00.0,31.5,24.6,11.5,-000.5,0024.44,0016.81,0016.41
2023-01-23 10:06:00,,0825.4,5.00,0.00,22.8,21.4,00.0,31.5,24.6,11.5,-000.5,0023.78,0016.45,0016.04
2023-01-23 10:07:00,,0825.4,4.99,0.00,22.8,21.4,00.0,31.5,24.6,11.4,-000.9,0023.16,0015.97,0015.57
2023-01-23 10:08:00,,0825.4,5.01,0.00,22.8,21.3,00.0,31.5,24.6,11.4,-001.0,0022.01,0015.42,0015.05
2023-01-23 10:09:00,,0825.4,5.00,0.00,22.8,21.3,00.0,31.5,24.5,11.4,-000.8,0021.23,0014.95,0014.60
2023-01-23 10:10:00,,0825.5,5.01,0.00,22.7,21.2,00.0,31.5,24.5,11.4,-000.5,0020.72,0014.53,0014.18
2023-01-23 10:11:00,,0825.4,4.99,0.00,22.7,21.2,00.0,31.5,24.5,11.4,-000.7,0019.93,0014.11,0013.81
2023-01-23 10:12:00,,0825.4,4.99,0.00,22.7,21.2,00.0,31.5,24.5,11.3,-000.9,0019.31,0013.73,0013.43
2023-01-23 10:13:00,,0825.5,5.01,0.00,22.7,21.2,00.0,31.5,24.5,11.4,-001.2,0018.55,0013.38,0013.09
2023-01-23 10:14:00,,0825.5,5.02,0.00,22.7,21.1,00.0,31.5,24.5,11.4,-001.1,0018.14,0013.15,0012.85
2023-01-23 10:15:00,,0825.5,5.00,0.00,22.7,21.1,00.0,31.5,24.5,11.4,-001.3,0017.93,0012.98,0012.67
2023-01-23 10:16:00,,0825.5,5.01,0.00,22.7,21.1,00.0,31.5,24.5,11.4,-000.9,0017.58,0012.95,0012.61
2023-01-23 10:17:00,,0825.5,4.98,0.00,22.7,21.1,00.0,31.4,24.5,11.4,-000.4,0017.42,0012.82,0012.50
2023-01-23 10:18:00,,0825.6,4.99,0.00,22.7,21.1,00.0,31.4,24.5,11.3,0000.3,0017.31,0012.78,0012.46
2023-01-23 10:19:00,,0825.6,5.00,0.00,22.6,21.1,00.0,31.4,24.4,11.4,0000.4,0017.33,0012.83,0012.51
2023-01-23 10:20:00,,0825.6,5.01,0.00,22.6,21.0,00.0,31.4,24.4,11.5,-000.2,0017.51,0012.95,0012.62
2023-01-23 10:21:00,,0825.6,5.00,0.00,22.6,21.0,00.0,31.4,24.4,11.6,-000.2,0017.64,0013.11,0012.79
2023-01-23 10:22:00,,0825.6,4.99,0.00,22.6,21.0,00.0,31.4,24.4,11.7,0000.1,0017.95,0013.37,0013.04
2023-01-23 10:23:00,,0825.7,4.98,0.00,22.6,21.0,00.0,31.4,24.4,11.7,0000.1,0018.36,0013.68,0013.32
2023-01-23 10:24:00,,0825.7,5.00,0.00,22.6,21.2,00.0,31.4,24.4,11.6,0000.5,0018.66,0013.90,0013.53
2023-01-23 10:25:00,,0825.7,5.00,0.00,22.7,22.0,00.0,31.4,24.6,11.5,0000.5,0018.75,0013.96,0013.60
2023-01-23 10:26:00,,0825.7,5.00,0.00,22.8,22.9,00.0,31.4,24.8,11.5,0000.6,0018.76,0014.01,0013.64
2023-01-23 10:27:00,,0825.8,4.99,0.00,22.9,23.0,00.0,31.4,24.9,11.4,0000.7,0018.59,0013.87,0013.52
2023-01-23 10:28:00,,0825.7,5.00,0.00,22.9,22.6,00.0,31.5,24.8,11.4,0000.7,0018.58,0013.88,0013.52
2023-01-23 10:29:00,,0825.7,5.01,0.00,22.9,22.3,00.0,31.5,24.8,11.4,0000.8,0018.86,0014.06,0013.69
2023-01-23 10:30:00,,0825.7,5.00,0.00,22.9,22.0,00.0,31.5,24.7,11.4,0001.3,0018.98,0014.15,0013.78
2023-01-23 10:31:00,,0825.7,5.00,0.00,22.9,21.8,00.0,31.5,24.7,11.4,0001.6,0019.05,0014.15,0013.77
2023-01-23 10:32:00,,0825.7,5.00,0.00,22.9,21.7,00.0,31.5,24.7,11.3,0001.4,0019.49,0014.08,0013.69
2023-01-23 10:33:00,,0825.8,5.00,0.00,22.9,21.6,00.0,31.5,24.7,11.3,0000.8,0019.43,0013.92,0013.53
2023-01-23 10:34:00,,0825.9,5.00,0.00,22.8,21.6,00.0,31.6,24.6,11.3,0000.7,0019.17,0013.73,0013.36
2023-01-23 10:35:00,,0826.0,4.97,0.00,22.8,21.5,00.0,31.6,24.6,11.4,0001.0,0019.14,0013.69,0013.32
2023-01-23 10:36:00,,0826.2,4.98,0.00,22.8,21.5,00.0,31.6,24.6,11.4,0001.2,0019.41,0013.87,0013.48
2023-01-23 10:37:00,,0826.0,5.01,0.00,22.8,21.5,00.0,31.6,24.6,11.4,0001.3,0019.65,0014.06,0013.68
2023-01-23 10:38:00,,0826.0,5.00,0.00,22.8,21.5,00.0,31.6,24.6,11.4,0001.4,0020.13,0014.26,0013.87
2023-01-23 10:39:00,,0825.8,4.99,0.00,22.8,21.5,00.0,31.6,24.5,11.3,0001.8,0020.57,0014.31,0013.89
2023-01-23 10:40:00,,0825.8,5.00,0.00,22.8,21.4,00.0,31.6,24.5,11.3,0002.0,0020.63,0014.17,0013.74
2023-01-23 10:41:00,,0825.8,5.00,0.00,22.8,21.4,00.0,31.6,24.5,11.3,0001.3,0020.57,0014.09,0013.65
2023-01-23 10:42:00,,0825.8,4.99,0.00,22.8,21.4,00.0,31.6,24.5,11.3,0001.7,0020.46,0014.05,0013.62
2023-01-23 10:43:00,,0825.8,5.00,0.00,22.8,21.3,00.0,31.6,24.5,11.3,0001.2,0019.85,0013.92,0013.50
2023-01-23 10:44:00,,0825.9,5.00,0.00,22.7,21.2,00.0,31.6,24.5,11.3,0001.8,0019.70,0013.89,0013.47
2023-01-23 10:45:00,,0825.9,5.00,0.00,22.7,21.2,00.0,31.5,24.4,11.4,0001.8,0019.86,0013.99,0013.56
2023-01-23 10:46:00,,0825.9,4.99,0.00,22.7,21.1,00.0,31.5,24.4,11.4,0001.1,0019.95,0014.09,0013.65
2023-01-23 10:47:00,,0825.9,5.00,0.00,22.7,21.1,00.0,31.5,24.4,11.4,0001.8,0019.90,0014.06,0013.61
2023-01-23 10:48:00,,0825.9,5.01,0.00,22.7,21.0,00.0,31.5,24.4,11.4,0001.5,0019.79,0013.95,0013.49
2023-01-23 10:49:00,,0825.9,5.03,0.00,22.6,21.0,00.0,31.5,24.4,11.4,0001.3,0019.43,0013.84,0013.38
2023-01-23 10:50:00,,0825.9,4.99,0.00,22.6,21.0,00.0,31.5,24.3,11.4,0000.8,0019.15,0013.88,0013.44
2023-01-23 10:51:00,,0825.9,5.00,0.00,22.6,21.1,00.0,31.4,24.3,11.5,0000.5,0019.51,0014.11,0013.70
2023-01-23 10:52:00,,0826.0,5.01,0.00,22.7,21.9,00.0,31.4,24.5,11.6,0000.8,0020.83,0014.60,0014.16
2023-01-23 10:53:00,,0825.9,4.99,0.00,22.8,22.8,00.0,31.4,24.7,11.5,0000.5,0021.57,0014.90,0014.47
2023-01-23 10:54:00,,0826.0,4.99,0.00,22.9,23.0,00.0,31.5,24.9,11.4,0001.0,0022.44,0015.25,0014.81
2023-01-23 10:55:00,,0825.9,4.99,0.00,22.9,22.6,00.0,31.5,24.9,11.4,0001.3,0022.88,0015.56,0015.07
2023-01-23 10:56:00,,0825.9,5.01,0.00,22.9,22.3,00.0,31.5,24.8,11.4,0001.1,0023.06,0015.70,0015.21
2023-01-23 10:57:00,,0825.9,5.00,0.00,22.9,22.0,00.0,31.5,24.7,11.4,0001.0,0023.04,0015.67,0015.18
2023-01-23 10:58:00,,0826.0,5.00,0.00,22.9,21.8,00.0,31.6,24.7,11.3,0000.5,0023.45,0015.58,0015.10
2023-01-23 10:59:00,,0825.9,5.00,0.00,22.8,21.6,00.0,31.6,24.6,11.3,0000.2,0023.65,0015.45,0015.00
